STARLINK-1647

Last updated on April 24, 2021, 12:02 a.m. UTC

1 47978U 21024B   21113.25001157 -.01178498  00000-0 -18966-1 0  9994
2 47978  53.0468  56.1817 0001148  74.8725 205.8907 15.55333853  1810
UTC
Height (km)
Latitude
Longitude
Inclination
Orbital Period
UTC large
Height (km)
Speed (km/s)
/
Latitude / Longitude
Inclination (degrees)
Orbital Period (minutes)
Azimuth
Elevation
Range (km)
Doppler Factor
iOS Compass Heading
iOS Angle

Next 30 passes for location: Hong Kong

Rise time Rise Azimuth (degrees) Set time Set Azimuth (degrees) Duration Max altitude (degrees)

No matching passes for this satellites